Regional Weather Roundup
Issued by NWS

Home | Current Version | Previous Version | Graphics & Text | Print | Product List | Glossary On
Versions: 1 2 3 4 5 6 7 8 9 10 11 12 13 14 15 16 17 18 19 20 21 22 23 24 25 26 27 28 29 30 31 32 33 34 35 36 37 38 39 40 41 42 43 44 45 46 47 48 49 50
000
ASUS43 KBIS 252110
RWRND

NORTH DAKOTA REGIONAL WEATHER ROUNDUP
NATIONAL WEATHER SERVICE BISMARCK ND
400 PM CDT THU AUG 25 2016

NOTE: "FAIR" INDICATES FEW OR NO CLOUDS BELOW 12,000 FEET WITH NO
SIGNIFICANT WEATHER AND/OR OBSTRUCTIONS TO VISIBILITY.


NDZ001>003-009>011-017-252200-
NORTHWEST NORTH DAKOTA

CITY           SKY/WX    TMP DP  RH WIND       PRES   REMARKS
WILLISTON      MOSUNNY   77  36  22 W10G24    30.12F
MINOT          SUNNY     75  41  29 W15       30.08F
MINOT AFB      MOSUNNY   73  40  30 NW13G18   30.07F
$$

NDZ018>021-031>035-040>046-252200-
SOUTHWEST NORTH DAKOTA

CITY           SKY/WX    TMP DP  RH WIND       PRES   REMARKS
BISMARCK       CLOUDY    66  47  50 NW12      30.16S
DICKINSON      PTSUNNY   69  32  25 NW8       30.16F
GARRISON         N/A     68  43  40 NW9       30.12F
HETTINGER ARPT CLOUDY    64  41  42 W9        30.21F
$$

NDZ004>008-012>016-024-026-027-054-252200-
NORTHEAST NORTH DAKOTA

CITY           SKY/WX    TMP DP  RH WIND       PRES   REMARKS
GRAND FORKS    PTSUNNY   69  52  54 W13       30.04S
GRND FRKS AFB  MOSUNNY   67  49  52 NW10      30.06S
DEVILS LAKE    MOSUNNY   68  47  46 NW9       30.07F
$$

NDZ022-023-025-028>030-036>039-047>053-252200-
SOUTHEAST NORTH DAKOTA

CITY           SKY/WX    TMP DP  RH WIND       PRES   REMARKS
FARGO          CLOUDY    69  49  48 NW14      30.06S
JAMESTOWN      CLOUDY    65  53  65 VRB6      30.10F
$$





USA.gov is the U.S. government's official web portal to all federal, state and local government web resources and services.